Location: Be?chatów
(51.3665°N, 19.3745°E)
Time: 06:59:00
(UTC+00:00)

Cosmos 1743 Rocket - Pass Details

Date: 19 May 2025
Orbit: 599 x 626 km, 82.6° (Epoch: 16 June)

Event Time Altitude Azimuth Distance (km) Brightness Sun altitude
Rises 21:42:21 0° 353° (N) 2,925 8.7 -17.6°
Reaches altitude 10° 21:44:41 10° 360° (N) 2,012 7.4 -17.7°
Maximum altitude 21:48:59 45° 74° (ENE) 850 4.2 -17.8°
Enters shadow 21:50:48 29° 128° (SE) 1,145 4.5 -17.9°
